User: anonymous   Login
Location: Noordwijk
(52.2400°N, 4.4500°E)
Time: 13:30:10
(UTC+00:00)
Language:

Oscar 19 - Orbit

View from above orbital plane
View from above orbital plane
View from above satellite
View from above satellite

Ground track
Ground track

The orbit data is extracted from the following two-line orbital elements,

1 20442U 90005G   22341.81092015  .00000183  00000-0  83511-4 0  9998
2 20442  98.8191 309.5307 0012215  24.8989 335.2781 14.33120523717938
Epoch (UTC): 07 December 2022 19:27:43
Eccentricity: 0.0012215
inclination: 98.8191°
perigee height: 772 km
apogee height: 790 km
right ascension of ascending node: 309.5307°
argument of perigee: 24.8989°
revolutions per day: 14.33120523
mean anomaly at epoch: 335.2781°
orbit number at epoch: 71793

The dashed part of the orbit path shows where the satellite is in the earth's shadow,  

DLR